Flag for Germany Weather past 2 weeks in Bielefeld, North Rhine-Westphalia, Germany

Now
54 °F

Sunny.


Feels Like: 54 °F
Forecast: 38 / 48 °F
Wind: 2 mph from Southwest

Location: Bad Lippspringe


UV Index: 0 (Low)

Visibility: 19 mi


Pressure: 30.21 "Hg

Humidity: 43%

Dew point: 32 °F

Location of BielefeldLocation

Historic Weather in Bielefeld

°F

Bielefeld temperature yesterday

Maximum temperature yesterday: 57 °F (at 6:00 PM)
Minimum temperature yesterday: 28 °F (at 7:00 AM)
Average temperature yesterday: 43 °F

Past Weeks' High & Low Weather Summary

 TemperatureHumidityPressure
High72 °F (Apr 3, 3:00 PM)99% (Apr 6, 8:00 AM)30.47 "Hg (Apr 6, 8:00 AM)
Low28 °F (Apr 16, 7:00 AM)30% (Apr 3, 5:00 PM)29.62 "Hg (Apr 3, 5:00 PM)
Average51 °F74%30.03 "Hg
* Reported Apr 2 12:00 Noon — Apr 17 12:00 Noon, Bielefeld, Weather by CustomWeather, © 2014

Note: Actual official high and low records may vary slightly from our data, if they occured in-between our weather recording intervals... More about our weather records

Advertising

Historic Weather Conditions — Data for Previous 24 hours

 ConditionsComfort  
Time TempWeatherWind HumidityBarometerVisibility
12:00 PM
Apr 17
54 °FSunny.2 mph43%30.21 "Hg19 mi
11:00 AM52 °FScattered clouds.3 mph45%30.24 "Hg19 mi
10:00 AM50 °FSunny.3 mph49%30.27 "Hg22 mi
9:00 AM47 °FSunny.2 mph53%30.28 "Hg19 mi
8:00 AM44 °FPassing clouds.1 mph55%30.29 "Hg19 mi
7:00 AM38 °FPassing clouds.2 mph69%30.31 "Hg22 mi
6:00 AM34 °FPassing clouds.1 mph78%30.32 "Hg17 mi
5:00 AM41 °FClear.2 mph57%30.33 "Hg22 mi
4:00 AM42 °FClear.2 mph58%30.34 "Hg19 mi
3:00 AM44 °FClear.3 mph51%30.35 "Hg25 mi
2:00 AM44 °FClear.2 mph56%30.37 "Hg25 mi
1:00 AM45 °FClear.3 mph56%30.37 "Hg31 mi
12:00 AM46 °FClear.3 mph58%30.37 "Hg28 mi
11:00 PM
Apr 16
38 °FClear.2 mph85%30.39 "Hg31 mi
10:00 PM44 °FClear.3 mph66%30.38 "Hg37 mi
9:00 PM46 °FClear.3 mph62%30.39 "Hg37 mi
8:00 PM52 °FPassing clouds.2 mph51%30.38 "Hg25 mi
7:00 PM55 °FSunny.2 mph44%30.38 "Hg40 mi
6:00 PM57 °FPartly sunny.1 mph42%30.38 "Hg43 mi
5:00 PM56 °FOvercast.3 mph41%30.40 "Hg31 mi
4:00 PM54 °FScattered clouds.1 mph41%30.41 "Hg34 mi
3:00 PM53 °FScattered clouds.3 mph44%30.42 "Hg34 mi
2:00 PM54 °FScattered clouds.3 mph48%30.43 "Hg28 mi
1:00 PM52 °FPassing clouds.3 mph48%30.44 "Hg25 mi
Weather by CustomWeather, © 2014

See weather overview